Time,TemperatureF,DewpointF,PressureIn,WindDirection,WindDirectionDegrees,WindSpeedMPH,WindSpeedGustMPH,Humidity,HourlyPrecipIn,Conditions,Clouds,dailyrainin,SoftwareType,DateUTC
2013-09-18 00:01:00,58.1,48.7,30.26,NW,315,0.0,0.0,71,0.00,,,0.00,WUHU216HW,2013-09-18 04:01:00,
2013-09-18 00:06:00,58.1,48.7,30.25,NNW,338,0.0,0.0,71,0.00,,,0.00,WUHU216HW,2013-09-18 04:06:00,
2013-09-18 00:11:00,57.9,48.5,30.25,NNW,338,0.0,0.0,71,0.00,,,0.00,WUHU216HW,2013-09-18 04:11:00,
2013-09-18 00:16:00,57.9,48.5,30.24,NNW,338,0.0,0.0,71,0.00,,,0.00,WUHU216HW,2013-09-18 04:16:00,
2013-09-18 00:21:00,57.9,48.5,30.24,NNW,338,0.0,0.0,71,0.00,,,0.00,WUHU216HW,2013-09-18 04:21:00,
2013-09-18 00:26:00,57.7,48.3,30.24,North,0,0.0,0.0,71,0.00,,,0.00,WUHU216HW,2013-09-18 04:26:00,
2013-09-18 00:31:00,57.5,48.2,30.24,North,0,0.0,0.0,71,0.00,,,0.00,WUHU216HW,2013-09-18 04:31:00,
2013-09-18 00:36:00,57.3,48.0,30.24,North,0,0.0,0.0,71,0.00,,,0.00,WUHU216HW,2013-09-18 04:36:00,
2013-09-18 00:41:00,57.3,48.0,30.24,North,0,0.0,0.0,71,0.00,,,0.00,WUHU216HW,2013-09-18 04:41:00,
2013-09-18 00:46:00,57.3,48.0,30.24,North,0,0.0,0.0,71,0.00,,,0.00,WUHU216HW,2013-09-18 04:46:00,
2013-09-18 00:51:00,57.2,47.8,30.23,North,0,0.0,0.0,71,0.00,,,0.00,WUHU216HW,2013-09-18 04:51:00,
2013-09-18 00:56:00,57.0,47.6,30.23,North,0,0.0,0.0,71,0.00,,,0.00,WUHU216HW,2013-09-18 04:56:00,
2013-09-18 01:01:00,57.0,47.6,30.23,ENE,68,0.0,0.0,71,0.00,,,0.00,WUHU216HW,2013-09-18 05:01:00,
2013-09-18 01:06:00,57.0,47.6,30.22,ENE,68,0.0,0.0,71,0.00,,,0.00,WUHU216HW,2013-09-18 05:06:00,
2013-09-18 01:11:00,57.0,47.8,30.23,ENE,68,0.0,0.0,71,0.00,,,0.00,WUHU216HW,2013-09-18 05:11:00,
2013-09-18 01:16:00,57.3,48.0,30.23,ENE,68,0.0,0.0,71,0.00,,,0.00,WUHU216HW,2013-09-18 05:16:00,
2013-09-18 01:21:00,57.3,48.0,30.23,ENE,68,0.0,0.0,71,0.00,,,0.00,WUHU216HW,2013-09-18 05:21:00,
2013-09-18 01:26:00,57.3,48.0,30.23,East,90,0.0,0.0,71,0.00,,,0.00,WUHU216HW,2013-09-18 05:26:00,
2013-09-18 01:31:00,57.3,47.6,30.22,ESE,113,0.0,0.0,70,0.00,,,0.00,WUHU216HW,2013-09-18 05:31:00,
2013-09-18 01:36:00,57.3,47.6,30.22,ESE,113,0.0,0.0,70,0.00,,,0.00,WUHU216HW,2013-09-18 05:36:00,
2013-09-18 01:41:00,57.3,47.6,30.22,ESE,113,0.0,0.0,70,0.00,,,0.00,WUHU216HW,2013-09-18 05:41:00,
2013-09-18 01:46:00,57.3,47.6,30.23,SE,135,0.0,0.0,70,0.00,,,0.00,WUHU216HW,2013-09-18 05:46:00,
2013-09-18 01:51:00,57.3,47.6,30.23,ESE,113,0.0,0.0,70,0.00,,,0.00,WUHU216HW,2013-09-18 05:51:00,
2013-09-18 01:56:00,57.3,47.6,30.23,ESE,113,0.0,0.0,70,0.00,,,0.00,WUHU216HW,2013-09-18 05:56:00,
2013-09-18 02:01:00,57.3,47.6,30.23,ESE,113,0.0,0.0,70,0.00,,,0.00,WUHU216HW,2013-09-18 06:01:00,
2013-09-18 02:06:00,57.3,47.6,30.23,ESE,113,1.1,1.1,70,0.00,,,0.00,WUHU216HW,2013-09-18 06:06:00,
2013-09-18 02:11:00,57.3,47.6,30.22,ESE,113,0.0,1.1,70,0.00,,,0.00,WUHU216HW,2013-09-18 06:11:00,
2013-09-18 02:16:00,57.3,48.0,30.22,ESE,113,0.0,1.1,71,0.00,,,0.00,WUHU216HW,2013-09-18 06:16:00,
2013-09-18 02:21:00,57.2,47.8,30.22,ESE,113,0.0,0.0,71,0.00,,,0.00,WUHU216HW,2013-09-18 06:21:00,
2013-09-18 02:26:00,57.2,47.8,30.22,ESE,113,0.0,1.1,71,0.00,,,0.00,WUHU216HW,2013-09-18 06:26:00,
2013-09-18 02:31:00,57.0,47.6,30.22,ESE,113,0.0,1.1,71,0.00,,,0.00,WUHU216HW,2013-09-18 06:31:00,
2013-09-18 02:36:00,57.0,47.6,30.22,ESE,113,0.0,0.0,71,0.00,,,0.00,WUHU216HW,2013-09-18 06:36:00,
2013-09-18 02:41:00,57.0,47.6,30.22,ESE,113,0.0,0.0,71,0.00,,,0.00,WUHU216HW,2013-09-18 06:41:00,
2013-09-18 02:46:00,56.8,47.4,30.22,ESE,113,0.0,0.0,71,0.00,,,0.00,WUHU216HW,2013-09-18 06:46:00,
2013-09-18 02:51:00,56.8,47.8,30.22,ESE,113,0.0,0.0,72,0.00,,,0.00,WUHU216HW,2013-09-18 06:51:00,
2013-09-18 02:56:00,56.8,47.8,30.21,ESE,113,0.0,0.0,72,0.00,,,0.00,WUHU216HW,2013-09-18 06:56:00,
2013-09-18 03:01:00,56.6,47.6,30.21,ESE,113,0.0,0.0,72,0.00,,,0.00,WUHU216HW,2013-09-18 07:01:00,
2013-09-18 03:06:00,56.4,47.5,30.21,ESE,113,0.0,0.0,72,0.00,,,0.00,WUHU216HW,2013-09-18 07:06:00,
2013-09-18 03:11:00,56.4,47.5,30.22,ESE,113,0.0,0.0,72,0.00,,,0.00,WUHU216HW,2013-09-18 07:11:00,
2013-09-18 03:16:00,56.4,47.5,30.22,ESE,113,0.0,0.0,72,0.00,,,0.00,WUHU216HW,2013-09-18 07:16:00,
2013-09-18 03:21:00,56.4,47.5,30.22,ESE,113,0.0,0.0,72,0.00,,,0.00,WUHU216HW,2013-09-18 07:21:00,
2013-09-18 03:26:00,56.4,47.5,30.21,ESE,113,0.0,0.0,72,0.00,,,0.00,WUHU216HW,2013-09-18 07:26:00,
2013-09-18 03:31:00,56.4,47.8,30.21,ESE,113,0.0,0.0,73,0.00,,,0.00,WUHU216HW,2013-09-18 07:31:00,
2013-09-18 03:36:00,56.4,47.8,30.21,ESE,113,0.0,0.0,73,0.00,,,0.00,WUHU216HW,2013-09-18 07:36:00,
2013-09-18 03:41:00,56.4,47.8,30.21,ESE,113,0.0,0.0,73,0.00,,,0.00,WUHU216HW,2013-09-18 07:41:00,
2013-09-18 03:46:00,56.4,47.8,30.21,ESE,113,0.0,0.0,73,0.00,,,0.00,WUHU216HW,2013-09-18 07:46:00,
2013-09-18 03:51:00,56.4,47.8,30.21,ESE,113,0.0,0.0,73,0.00,,,0.00,WUHU216HW,2013-09-18 07:51:00,
2013-09-18 03:56:00,56.3,47.7,30.20,ESE,113,0.0,0.0,73,0.00,,,0.00,WUHU216HW,2013-09-18 07:56:00,
2013-09-18 04:01:00,56.3,47.7,30.20,ESE,113,0.0,0.0,73,0.00,,,0.00,WUHU216HW,2013-09-18 08:01:00,
2013-09-18 04:06:00,56.3,47.7,30.20,ESE,113,0.0,0.0,73,0.00,,,0.00,WUHU216HW,2013-09-18 08:06:00,
2013-09-18 04:11:00,56.3,47.7,30.20,ESE,113,0.0,0.0,73,0.00,,,0.00,WUHU216HW,2013-09-18 08:11:00,
2013-09-18 04:16:00,56.3,47.7,30.20,ESE,113,0.0,0.0,73,0.00,,,0.00,WUHU216HW,2013-09-18 08:16:00,
2013-09-18 04:21:00,56.3,47.7,30.20,ESE,113,0.0,0.0,73,0.00,,,0.00,WUHU216HW,2013-09-18 08:21:00,
2013-09-18 04:26:00,56.3,47.7,30.20,ESE,113,0.0,0.0,73,0.00,,,0.00,WUHU216HW,2013-09-18 08:26:00,
2013-09-18 04:31:00,56.3,47.7,30.20,ESE,113,0.0,0.0,73,0.00,,,0.00,WUHU216HW,2013-09-18 08:31:00,
2013-09-18 04:36:00,56.3,47.7,30.20,ESE,113,0.0,0.0,73,0.00,,,0.00,WUHU216HW,2013-09-18 08:36:00,
2013-09-18 04:41:00,56.3,47.7,30.20,ESE,113,0.0,0.0,73,0.00,,,0.00,WUHU216HW,2013-09-18 08:41:00,
2013-09-18 04:46:00,56.3,47.7,30.20,ESE,113,0.0,0.0,73,0.00,,,0.00,WUHU216HW,2013-09-18 08:46:00,
2013-09-18 04:51:00,56.1,47.8,30.20,ESE,113,0.0,0.0,74,0.00,,,0.00,WUHU216HW,2013-09-18 08:51:00,
2013-09-18 04:56:00,56.1,47.8,30.20,ESE,113,0.0,0.0,74,0.00,,,0.00,WUHU216HW,2013-09-18 08:56:00,
2013-09-18 05:01:00,55.9,47.7,30.20,ESE,113,0.0,0.0,74,0.00,,,0.00,WUHU216HW,2013-09-18 09:01:00,
2013-09-18 05:09:00,55.9,48.0,30.20,ESE,113,0.0,0.0,75,0.00,,,0.00,WUHU216HW,2013-09-18 09:09:00,
2013-09-18 05:14:00,55.9,48.0,30.20,ESE,113,0.0,0.0,75,0.00,,,0.00,WUHU216HW,2013-09-18 09:14:00,
2013-09-18 05:19:00,55.9,48.0,30.20,ESE,113,0.0,0.0,75,0.00,,,0.00,WUHU216HW,2013-09-18 09:19:00,
2013-09-18 05:24:00,55.9,48.0,30.20,ESE,113,0.0,0.0,75,0.00,,,0.00,WUHU216HW,2013-09-18 09:24:00,
2013-09-18 05:29:00,55.9,48.0,30.20,ESE,113,0.0,0.0,75,0.00,,,0.00,WUHU216HW,2013-09-18 09:29:00,
2013-09-18 05:34:00,56.1,48.2,30.20,ESE,113,0.0,0.0,75,0.00,,,0.00,WUHU216HW,2013-09-18 09:34:00,
2013-09-18 05:39:00,55.9,48.0,30.20,ESE,113,0.0,0.0,75,0.00,,,0.00,WUHU216HW,2013-09-18 09:39:00,
2013-09-18 05:44:00,56.1,48.2,30.20,ESE,113,0.0,0.0,75,0.00,,,0.00,WUHU216HW,2013-09-18 09:44:00,
2013-09-18 05:49:00,56.1,48.2,30.19,ESE,113,0.0,0.0,75,0.00,,,0.00,WUHU216HW,2013-09-18 09:49:00,
2013-09-18 05:54:00,56.1,48.2,30.19,ESE,113,0.0,0.0,75,0.00,,,0.00,WUHU216HW,2013-09-18 09:54:00,
2013-09-18 05:59:00,56.1,48.2,30.19,ESE,113,0.0,0.0,75,0.00,,,0.00,WUHU216HW,2013-09-18 09:59:00,
2013-09-18 06:04:00,55.9,48.0,30.19,ESE,113,0.0,0.0,75,0.00,,,0.00,WUHU216HW,2013-09-18 10:04:00,
2013-09-18 06:09:00,55.9,48.0,30.20,ESE,113,0.0,0.0,75,0.00,,,0.00,WUHU216HW,2013-09-18 10:09:00,
2013-09-18 06:14:00,56.1,48.2,30.19,ESE,113,0.0,0.0,75,0.00,,,0.00,WUHU216HW,2013-09-18 10:14:00,
2013-09-18 06:19:00,55.9,48.4,30.20,ESE,113,0.0,0.0,76,0.00,,,0.00,WUHU216HW,2013-09-18 10:19:00,
2013-09-18 06:24:00,55.9,48.4,30.19,ESE,113,0.0,0.0,76,0.00,,,0.00,WUHU216HW,2013-09-18 10:24:00,
2013-09-18 06:29:00,55.9,48.4,30.20,ESE,113,0.0,0.0,76,0.00,,,0.00,WUHU216HW,2013-09-18 10:29:00,
2013-09-18 06:34:00,55.9,48.4,30.20,ESE,113,0.0,0.0,76,0.00,,,0.00,WUHU216HW,2013-09-18 10:34:00,
2013-09-18 06:39:00,55.9,48.4,30.20,ESE,113,0.0,0.0,76,0.00,,,0.00,WUHU216HW,2013-09-18 10:39:00,
2013-09-18 06:44:00,55.9,48.7,30.20,ESE,113,0.0,0.0,77,0.00,,,0.00,WUHU216HW,2013-09-18 10:44:00,
2013-09-18 06:49:00,55.7,48.5,30.20,ESE,113,0.0,0.0,77,0.00,,,0.00,WUHU216HW,2013-09-18 10:49:00,
2013-09-18 06:54:00,55.7,48.9,30.19,ESE,113,0.0,0.0,78,0.00,,,0.00,WUHU216HW,2013-09-18 10:54:00,
2013-09-18 06:59:00,55.7,48.9,30.19,ESE,113,0.0,0.0,78,0.00,,,0.00,WUHU216HW,2013-09-18 10:59:00,
2013-09-18 07:04:00,55.7,48.9,30.19,ESE,113,0.0,0.0,78,0.00,,,0.00,WUHU216HW,2013-09-18 11:04:00,
2013-09-18 07:09:00,55.9,49.1,30.20,ESE,113,0.0,0.0,78,0.00,,,0.00,WUHU216HW,2013-09-18 11:09:00,
2013-09-18 07:14:00,55.9,49.1,30.20,ESE,113,0.0,0.0,78,0.00,,,0.00,WUHU216HW,2013-09-18 11:14:00,
2013-09-18 07:19:00,55.9,49.1,30.20,ESE,113,0.0,0.0,78,0.00,,,0.00,WUHU216HW,2013-09-18 11:19:00,
2013-09-18 07:24:00,55.9,49.1,30.20,ESE,113,0.0,0.0,78,0.00,,,0.00,WUHU216HW,2013-09-18 11:24:00,
2013-09-18 07:29:00,55.9,49.1,30.20,ESE,113,0.0,0.0,78,0.00,,,0.00,WUHU216HW,2013-09-18 11:29:00,
2013-09-18 07:34:00,55.9,49.1,30.20,ESE,113,0.0,0.0,78,0.00,,,0.00,WUHU216HW,2013-09-18 11:34:00,
2013-09-18 07:39:00,56.1,49.6,30.20,ESE,113,0.0,0.0,79,0.00,,,0.00,WUHU216HW,2013-09-18 11:39:00,
2013-09-18 07:44:00,56.1,49.6,30.21,ESE,113,0.0,0.0,79,0.00,,,0.00,WUHU216HW,2013-09-18 11:44:00,
2013-09-18 07:49:00,56.3,49.8,30.21,ESE,113,0.0,0.0,79,0.00,,,0.00,WUHU216HW,2013-09-18 11:49:00,
2013-09-18 07:53:00,56.3,49.8,30.20,ESE,113,0.0,0.0,79,0.00,,,0.00,WUHU216HW,2013-09-18 11:53:00,
2013-09-18 07:58:00,56.3,49.8,30.20,ESE,113,0.0,0.0,79,0.00,,,0.00,WUHU216HW,2013-09-18 11:58:00,
2013-09-18 08:03:00,56.4,50.0,30.20,ESE,113,0.0,0.0,79,0.00,,,0.00,WUHU216HW,2013-09-18 12:03:00,
2013-09-18 08:08:00,56.4,50.0,30.20,ESE,113,0.0,0.0,79,0.00,,,0.00,WUHU216HW,2013-09-18 12:08:00,
2013-09-18 08:13:00,56.4,50.0,30.20,ESE,113,0.0,0.0,79,0.00,,,0.00,WUHU216HW,2013-09-18 12:13:00,
2013-09-18 08:18:00,56.6,49.8,30.20,ESE,113,0.0,0.0,78,0.00,,,0.00,WUHU216HW,2013-09-18 12:18:00,
2013-09-18 08:23:00,56.8,50.0,30.20,ESE,113,0.0,0.0,78,0.00,,,0.00,WUHU216HW,2013-09-18 12:23:00,
2013-09-18 08:28:00,56.8,50.0,30.20,ESE,113,0.0,0.0,78,0.00,,,0.00,WUHU216HW,2013-09-18 12:28:00,
2013-09-18 08:33:00,57.0,50.1,30.20,ESE,113,0.0,0.0,78,0.00,,,0.00,WUHU216HW,2013-09-18 12:33:00,
2013-09-18 08:38:00,57.0,50.1,30.19,ESE,113,0.0,0.0,78,0.00,,,0.00,WUHU216HW,2013-09-18 12:38:00,
2013-09-18 08:43:00,57.0,50.3,30.19,ESE,113,0.0,0.0,78,0.00,,,0.00,WUHU216HW,2013-09-18 12:43:00,
2013-09-18 08:48:00,57.3,50.9,30.19,ESE,113,0.0,0.0,79,0.00,,,0.00,WUHU216HW,2013-09-18 12:48:00,
2013-09-18 08:53:00,57.3,50.9,30.19,ESE,113,0.0,0.0,79,0.00,,,0.00,WUHU216HW,2013-09-18 12:53:00,
2013-09-18 08:58:00,57.5,51.0,30.19,ESE,113,0.0,0.0,79,0.00,,,0.00,WUHU216HW,2013-09-18 12:58:00,
2013-09-18 09:03:00,57.7,51.2,30.19,ESE,113,0.0,0.0,79,0.00,,,0.00,WUHU216HW,2013-09-18 13:03:00,
2013-09-18 09:08:00,57.7,51.2,30.19,ESE,113,0.0,0.0,79,0.00,,,0.00,WUHU216HW,2013-09-18 13:08:00,
2013-09-18 09:13:00,57.9,51.4,30.19,ESE,113,0.0,0.0,79,0.00,,,0.00,WUHU216HW,2013-09-18 13:13:00,
2013-09-18 09:18:00,58.1,51.6,30.19,ESE,113,0.0,0.0,79,0.00,,,0.00,WUHU216HW,2013-09-18 13:18:00,
2013-09-18 09:23:00,58.2,51.8,30.19,ESE,113,0.0,0.0,79,0.00,,,0.00,WUHU216HW,2013-09-18 13:23:00,
2013-09-18 09:28:00,58.4,52.1,30.19,ESE,113,0.0,0.0,79,0.00,,,0.00,WUHU216HW,2013-09-18 13:28:00,
2013-09-18 09:33:00,58.8,51.9,30.19,East,90,0.0,0.0,78,0.00,,,0.00,WUHU216HW,2013-09-18 13:33:00,
2013-09-18 09:38:00,58.8,51.9,30.19,East,90,0.8,0.8,78,0.00,,,0.00,WUHU216HW,2013-09-18 13:38:00,
2013-09-18 09:43:00,59.1,52.3,30.19,ENE,68,0.0,0.8,78,0.00,,,0.00,WUHU216HW,2013-09-18 13:43:00,
2013-09-18 09:48:00,59.5,52.7,30.19,ESE,113,0.0,0.0,78,0.00,,,0.00,WUHU216HW,2013-09-18 13:48:00,
2013-09-18 09:53:00,59.7,52.8,30.19,ESE,113,0.0,0.8,78,0.00,,,0.00,WUHU216HW,2013-09-18 13:53:00,
2013-09-18 09:58:00,60.0,52.8,30.19,ESE,113,0.0,0.8,77,0.00,,,0.00,WUHU216HW,2013-09-18 13:58:00,
2013-09-18 10:03:00,60.4,53.2,30.19,ESE,113,0.0,0.0,77,0.00,,,0.00,WUHU216HW,2013-09-18 14:03:00,
2013-09-18 10:08:00,60.4,53.2,30.19,ESE,113,0.0,0.0,77,0.00,,,0.00,WUHU216HW,2013-09-18 14:08:00,
2013-09-18 10:13:00,60.6,53.0,30.18,ESE,113,0.0,0.0,76,0.00,,,0.00,WUHU216HW,2013-09-18 14:13:00,
2013-09-18 10:18:00,60.9,53.4,30.19,SE,135,0.0,0.0,76,0.00,,,0.00,WUHU216HW,2013-09-18 14:18:00,
2013-09-18 10:23:00,61.3,53.7,30.19,SE,135,0.0,0.0,76,0.00,,,0.00,WUHU216HW,2013-09-18 14:23:00,
2013-09-18 10:28:00,61.5,53.8,30.19,SE,135,0.0,0.0,76,0.00,,,0.00,WUHU216HW,2013-09-18 14:28:00,
2013-09-18 10:33:00,61.8,54.2,30.19,ESE,113,0.0,0.0,76,0.00,,,0.00,WUHU216HW,2013-09-18 14:33:00,
2013-09-18 10:38:00,62.0,54.0,30.19,ESE,113,0.0,0.0,75,0.00,,,0.00,WUHU216HW,2013-09-18 14:38:00,
2013-09-18 10:43:00,62.4,54.3,30.19,ESE,113,0.0,0.0,75,0.00,,,0.00,WUHU216HW,2013-09-18 14:43:00,
2013-09-18 10:48:00,62.6,54.5,30.19,ESE,113,0.0,0.0,75,0.00,,,0.00,WUHU216HW,2013-09-18 14:48:00,
2013-09-18 10:53:00,62.7,54.6,30.18,SE,135,0.0,0.0,75,0.00,,,0.00,WUHU216HW,2013-09-18 14:53:00,
2013-09-18 10:58:00,63.3,54.8,30.18,ESE,113,0.0,0.0,74,0.00,,,0.00,WUHU216HW,2013-09-18 14:58:00,
2013-09-18 11:03:00,63.5,54.8,30.18,ESE,113,0.0,0.0,73,0.00,,,0.00,WUHU216HW,2013-09-18 15:03:00,
2013-09-18 11:08:00,64.2,55.4,30.19,ESE,113,0.0,0.0,73,0.00,,,0.00,WUHU216HW,2013-09-18 15:08:00,
2013-09-18 11:13:00,64.9,56.0,30.18,ESE,113,0.0,0.0,73,0.00,,,0.00,WUHU216HW,2013-09-18 15:13:00,
2013-09-18 11:18:00,65.3,56.0,30.18,SE,135,0.0,0.0,72,0.00,,,0.00,WUHU216HW,2013-09-18 15:18:00,
2013-09-18 11:23:00,66.2,56.4,30.18,SW,225,2.9,2.9,71,0.00,,,0.00,WUHU216HW,2013-09-18 15:23:00,
2013-09-18 11:28:00,67.1,56.6,30.18,SSW,203,0.0,2.9,70,0.00,,,0.00,WUHU216HW,2013-09-18 15:28:00,
2013-09-18 11:33:00,67.6,57.1,30.18,SE,135,1.5,1.5,69,0.00,,,0.00,WUHU216HW,2013-09-18 15:33:00,
2013-09-18 11:38:00,67.8,56.8,30.18,SE,135,0.0,2.2,68,0.00,,,0.00,WUHU216HW,2013-09-18 15:38:00,
2013-09-18 11:43:00,68.1,57.2,30.17,SE,135,0.0,2.2,68,0.00,,,0.00,WUHU216HW,2013-09-18 15:43:00,
2013-09-18 11:48:00,69.0,57.2,30.17,ESE,113,0.0,0.6,66,0.00,,,0.00,WUHU216HW,2013-09-18 15:48:00,
2013-09-18 11:53:00,69.4,57.5,30.17,South,180,0.0,0.6,66,0.00,,,0.00,WUHU216HW,2013-09-18 15:53:00,
2013-09-18 11:58:00,69.9,57.4,30.17,South,180,2.4,3.5,65,0.00,,,0.00,WUHU216HW,2013-09-18 15:58:00,
2013-09-18 12:01:00,69.9,57.6,30.17,South,180,2.4,3.5,65,0.00,,,0.00,WUHU216HW,2013-09-18 16:01:00,
2013-09-18 12:06:00,70.5,57.7,30.16,SSE,158,0.0,3.5,64,0.00,,,0.00,WUHU216HW,2013-09-18 16:06:00,
2013-09-18 12:11:00,71.0,57.8,30.16,ESE,113,0.0,0.8,63,0.00,,,0.00,WUHU216HW,2013-09-18 16:11:00,
2013-09-18 12:16:00,71.4,58.1,30.16,SE,135,0.0,1.5,63,0.00,,,0.00,WUHU216HW,2013-09-18 16:16:00,
2013-09-18 12:21:00,71.9,58.2,30.16,SSW,203,2.2,2.2,62,0.00,,,0.00,WUHU216HW,2013-09-18 16:21:00,
2013-09-18 12:26:00,72.5,58.7,30.16,SSW,203,0.0,2.2,62,0.00,,,0.00,WUHU216HW,2013-09-18 16:26:00,
2013-09-18 12:31:00,73.0,58.7,30.16,SSE,158,1.3,2.2,61,0.00,,,0.00,WUHU216HW,2013-09-18 16:31:00,
2013-09-18 12:36:00,73.4,58.6,30.16,SSE,158,0.8,1.3,60,0.00,,,0.00,WUHU216HW,2013-09-18 16:36:00,
2013-09-18 12:41:00,73.7,58.4,30.16,SSW,203,3.8,3.8,59,0.00,,,0.00,WUHU216HW,2013-09-18 16:41:00,
2013-09-18 12:46:00,74.1,58.3,30.16,SE,135,0.0,3.8,58,0.00,,,0.00,WUHU216HW,2013-09-18 16:46:00,
2013-09-18 12:51:00,74.4,58.2,30.16,South,180,1.5,3.1,57,0.00,,,0.00,WUHU216HW,2013-09-18 16:51:00,
2013-09-18 12:56:00,74.8,58.0,30.16,South,180,4.6,4.6,56,0.00,,,0.00,WUHU216HW,2013-09-18 16:56:00,
2013-09-18 13:00:00,75.2,58.2,30.16,South,180,1.3,4.6,56,0.00,,,0.00,WUHU216HW,2013-09-18 17:00:00,
2013-09-18 13:05:00,75.5,58.7,30.16,South,180,3.8,4.0,56,0.00,,,0.00,WUHU216HW,2013-09-18 17:05:00,
2013-09-18 13:10:00,75.7,58.9,30.16,SE,135,0.0,4.0,56,0.00,,,0.00,WUHU216HW,2013-09-18 17:10:00,
2013-09-18 13:15:00,75.9,58.5,30.15,SSW,203,2.2,3.8,55,0.00,,,0.00,WUHU216HW,2013-09-18 17:15:00,
2013-09-18 13:20:00,75.9,57.5,30.16,South,180,2.9,8.2,53,0.00,,,0.00,WUHU216HW,2013-09-18 17:20:00,
2013-09-18 13:25:00,76.1,58.2,30.15,SSE,158,2.4,8.2,54,0.00,,,0.00,WUHU216HW,2013-09-18 17:25:00,
2013-09-18 13:31:00,76.2,58.7,30.16,South,180,4.4,4.4,55,0.00,,,0.00,WUHU216HW,2013-09-18 17:31:00,
2013-09-18 13:36:00,76.6,59.2,30.16,SSW,203,0.0,4.4,55,0.00,,,0.00,WUHU216HW,2013-09-18 17:36:00,
2013-09-18 13:41:00,77.0,59.0,30.15,SE,135,0.0,4.4,54,0.00,,,0.00,WUHU216HW,2013-09-18 17:41:00,
2013-09-18 13:46:00,77.3,59.3,30.15,South,180,2.0,5.8,54,0.00,,,0.00,WUHU216HW,2013-09-18 17:46:00,
2013-09-18 13:51:00,77.1,58.6,30.15,South,180,5.8,5.8,53,0.00,,,0.00,WUHU216HW,2013-09-18 17:51:00,
2013-09-18 13:56:00,76.8,58.3,30.14,South,180,2.9,5.8,53,0.00,,,0.00,WUHU216HW,2013-09-18 17:56:00,
2013-09-18 14:01:00,76.8,58.8,30.14,SSW,203,5.5,5.8,54,0.00,,,0.00,WUHU216HW,2013-09-18 18:01:00,
2013-09-18 14:06:00,77.0,59.0,30.13,ESE,113,0.8,5.5,54,0.00,,,0.00,WUHU216HW,2013-09-18 18:06:00,
2013-09-18 14:11:00,77.0,59.0,30.13,SE,135,0.0,4.4,54,0.00,,,0.00,WUHU216HW,2013-09-18 18:11:00,
2013-09-18 14:16:00,77.3,58.8,30.14,South,180,5.3,5.8,53,0.00,,,0.00,WUHU216HW,2013-09-18 18:16:00,
2013-09-18 14:21:00,77.3,58.8,30.13,SSW,203,1.3,5.8,53,0.00,,,0.00,WUHU216HW,2013-09-18 18:21:00,
2013-09-18 14:26:00,77.5,59.0,30.13,South,180,3.1,5.3,53,0.00,,,0.00,WUHU216HW,2013-09-18 18:26:00,
2013-09-18 14:31:00,77.7,59.1,30.13,SW,225,4.6,4.9,53,0.00,,,0.00,WUHU216HW,2013-09-18 18:31:00,
2013-09-18 14:36:00,78.0,59.5,30.13,SSE,158,0.0,4.6,53,0.00,,,0.00,WUHU216HW,2013-09-18 18:36:00,
2013-09-18 14:41:00,78.0,59.5,30.13,South,180,1.1,4.6,53,0.00,,,0.00,WUHU216HW,2013-09-18 18:41:00,
2013-09-18 14:46:00,78.6,60.0,30.13,South,180,0.0,2.9,53,0.00,,,0.00,WUHU216HW,2013-09-18 18:46:00,
2013-09-18 14:51:00,78.9,59.8,30.12,ESE,113,2.0,2.9,52,0.00,,,0.00,WUHU216HW,2013-09-18 18:51:00,
2013-09-18 14:56:00,79.1,60.0,30.12,South,180,2.2,2.2,52,0.00,,,0.00,WUHU216HW,2013-09-18 18:56:00,
2013-09-18 15:01:00,79.3,60.1,30.12,SE,135,0.0,4.0,52,0.00,,,0.00,WUHU216HW,2013-09-18 19:01:00,
2013-09-18 15:06:00,79.5,60.3,30.12,South,180,1.3,4.0,52,0.00,,,0.00,WUHU216HW,2013-09-18 19:06:00,
2013-09-18 15:11:00,79.8,60.1,30.11,SW,225,6.4,6.4,51,0.00,,,0.00,WUHU216HW,2013-09-18 19:11:00,
2013-09-18 15:16:00,80.4,60.6,30.11,South,180,1.3,6.4,51,0.00,,,0.00,WUHU216HW,2013-09-18 19:16:00,
2013-09-18 15:21:00,80.6,60.7,30.11,South,180,3.5,3.5,51,0.00,,,0.00,WUHU216HW,2013-09-18 19:21:00,
2013-09-18 15:26:00,80.7,60.9,30.10,East,90,4.4,4.4,51,0.00,,,0.00,WUHU216HW,2013-09-18 19:26:00,
2013-09-18 15:31:00,80.4,60.6,30.10,SSW,203,12.9,12.9,51,0.00,,,0.00,WUHU216HW,2013-09-18 19:31:00,
2013-09-18 15:36:00,80.4,60.6,30.11,South,180,3.1,12.9,51,0.00,,,0.00,WUHU216HW,2013-09-18 19:36:00,
2013-09-18 15:41:00,80.4,60.6,30.10,SSE,158,0.0,12.9,51,0.00,,,0.00,WUHU216HW,2013-09-18 19:41:00,
2013-09-18 15:46:00,81.1,61.2,30.10,South,180,1.3,6.9,51,0.00,,,0.00,WUHU216HW,2013-09-18 19:46:00,
2013-09-18 15:51:00,80.9,61.1,30.09,SSW,203,1.1,4.9,51,0.00,,,0.00,WUHU216HW,2013-09-18 19:51:00,
2013-09-18 15:56:00,80.4,60.6,30.09,SE,135,2.2,2.4,51,0.00,,,0.00,WUHU216HW,2013-09-18 19:56:00,
2013-09-18 16:01:00,80.4,61.1,30.09,SSW,203,0.0,2.4,52,0.00,,,0.00,WUHU216HW,2013-09-18 20:01:00,
2013-09-18 16:06:00,80.6,61.3,30.09,South,180,0.0,2.0,52,0.00,,,0.00,WUHU216HW,2013-09-18 20:06:00,
2013-09-18 16:11:00,81.1,61.2,30.08,ESE,113,0.0,1.5,51,0.00,,,0.00,WUHU216HW,2013-09-18 20:11:00,
2013-09-18 16:16:00,81.5,61.5,30.08,SE,135,1.3,3.3,51,0.00,,,0.00,WUHU216HW,2013-09-18 20:16:00,
2013-09-18 16:21:00,81.5,61.5,30.08,SSE,158,0.0,3.3,51,0.00,,,0.00,WUHU216HW,2013-09-18 20:21:00,
2013-09-18 16:26:00,81.6,61.7,30.08,SSE,158,1.3,1.3,51,0.00,,,0.00,WUHU216HW,2013-09-18 20:26:00,
2013-09-18 16:31:00,82.2,62.2,30.08,South,180,4.9,4.9,51,0.00,,,0.00,WUHU216HW,2013-09-18 20:31:00,
2013-09-18 16:36:00,82.5,62.0,30.08,SSE,158,2.6,8.2,50,0.00,,,0.00,WUHU216HW,2013-09-18 20:36:00,
2013-09-18 16:41:00,82.2,61.7,30.08,SSE,158,0.0,8.2,50,0.00,,,0.00,WUHU216HW,2013-09-18 20:41:00,
2013-09-18 16:46:00,82.2,62.2,30.08,SSW,203,0.0,2.9,51,0.00,,,0.00,WUHU216HW,2013-09-18 20:46:00,
2013-09-18 16:51:00,81.6,61.7,30.08,SE,135,0.0,0.0,51,0.00,,,0.00,WUHU216HW,2013-09-18 20:51:00,
2013-09-18 16:56:00,81.3,61.4,30.08,SE,135,0.0,0.6,51,0.00,,,0.00,WUHU216HW,2013-09-18 20:56:00,
2013-09-18 17:01:00,81.3,61.9,30.08,ESE,113,0.0,0.6,52,0.00,,,0.00,WUHU216HW,2013-09-18 21:01:00,
2013-09-18 17:06:00,81.3,61.9,30.08,South,180,0.0,4.0,52,0.00,,,0.00,WUHU216HW,2013-09-18 21:06:00,
2013-09-18 17:11:00,81.3,61.9,30.08,ESE,113,2.2,4.0,52,0.00,,,0.00,WUHU216HW,2013-09-18 21:11:00,
2013-09-18 17:16:00,81.5,62.1,30.07,SSE,158,0.0,2.2,52,0.00,,,0.00,WUHU216HW,2013-09-18 21:16:00,
2013-09-18 17:21:00,82.0,62.6,30.07,ESE,113,0.0,2.0,52,0.00,,,0.00,WUHU216HW,2013-09-18 21:21:00,
2013-09-18 17:26:00,82.4,62.9,30.07,SE,135,2.2,2.2,52,0.00,,,0.00,WUHU216HW,2013-09-18 21:26:00,
2013-09-18 17:31:00,82.0,62.2,30.07,ESE,113,0.0,3.8,51,0.00,,,0.00,WUHU216HW,2013-09-18 21:31:00,
2013-09-18 17:36:00,82.0,62.6,30.08,SSE,158,0.0,4.9,52,0.00,,,0.00,WUHU216HW,2013-09-18 21:36:00,
2013-09-18 17:41:00,81.6,62.2,30.08,SSW,203,3.8,4.9,52,0.00,,,0.00,WUHU216HW,2013-09-18 21:41:00,
2013-09-18 17:46:00,81.1,61.7,30.08,South,180,0.8,3.8,52,0.00,,,0.00,WUHU216HW,2013-09-18 21:46:00,
2013-09-18 17:51:00,80.7,61.9,30.08,SSE,158,1.1,1.5,53,0.00,,,0.00,WUHU216HW,2013-09-18 21:51:00,
2013-09-18 17:56:00,80.4,61.6,30.07,SW,225,1.1,1.1,53,0.00,,,0.00,WUHU216HW,2013-09-18 21:56:00,
2013-09-18 18:01:00,80.4,62.1,30.07,South,180,0.0,2.0,54,0.00,,,0.00,WUHU216HW,2013-09-18 22:01:00,
2013-09-18 18:06:00,79.8,61.7,30.08,SW,225,5.8,5.8,54,0.00,,,0.00,WUHU216HW,2013-09-18 22:06:00,
2013-09-18 18:11:00,79.8,61.7,30.07,South,180,0.0,5.8,54,0.00,,,0.00,WUHU216HW,2013-09-18 22:11:00,
2013-09-18 18:16:00,79.5,61.8,30.07,South,180,0.0,0.0,55,0.00,,,0.00,WUHU216HW,2013-09-18 22:16:00,
2013-09-18 18:21:00,79.3,61.7,30.07,SSW,203,0.0,0.0,55,0.00,,,0.00,WUHU216HW,2013-09-18 22:21:00,
2013-09-18 18:26:00,79.1,61.5,30.07,South,180,2.6,2.6,55,0.00,,,0.00,WUHU216HW,2013-09-18 22:26:00,
2013-09-18 18:31:00,78.6,61.5,30.07,SSW,203,1.7,2.6,56,0.00,,,0.00,WUHU216HW,2013-09-18 22:31:00,
2013-09-18 18:36:00,78.4,61.4,30.07,South,180,0.0,1.7,56,0.00,,,0.00,WUHU216HW,2013-09-18 22:36:00,
2013-09-18 18:41:00,78.4,61.9,30.07,South,180,0.0,1.7,57,0.00,,,0.00,WUHU216HW,2013-09-18 22:41:00,
2013-09-18 18:46:00,78.0,61.5,30.07,South,180,0.0,0.0,57,0.00,,,0.00,WUHU216HW,2013-09-18 22:46:00,
2013-09-18 18:51:00,78.0,62.0,30.07,South,180,0.0,0.0,58,0.00,,,0.00,WUHU216HW,2013-09-18 22:51:00,
2013-09-18 18:56:00,77.9,61.7,30.06,South,180,0.0,3.1,58,0.00,,,0.00,WUHU216HW,2013-09-18 22:56:00,
2013-09-18 19:01:00,77.7,61.7,30.06,South,180,0.8,3.1,58,0.00,,,0.00,WUHU216HW,2013-09-18 23:01:00,
2013-09-18 19:06:00,77.5,62.0,30.06,SSE,158,0.0,0.8,59,0.00,,,0.00,WUHU216HW,2013-09-18 23:06:00,
2013-09-18 19:11:00,77.3,61.8,30.05,ESE,113,2.4,2.4,59,0.00,,,0.00,WUHU216HW,2013-09-18 23:11:00,
2013-09-18 19:16:00,77.0,61.5,30.05,ESE,113,0.0,2.4,59,0.00,,,0.00,WUHU216HW,2013-09-18 23:16:00,
2013-09-18 19:21:00,76.8,61.8,30.05,SE,135,0.0,0.0,60,0.00,,,0.00,WUHU216HW,2013-09-18 23:21:00,
2013-09-18 19:26:00,76.8,61.7,30.05,SE,135,0.0,0.0,60,0.00,,,0.00,WUHU216HW,2013-09-18 23:26:00,
2013-09-18 19:31:00,76.4,61.5,30.05,ESE,113,0.0,0.0,60,0.00,,,0.00,WUHU216HW,2013-09-18 23:31:00,
2013-09-18 19:36:00,76.1,61.2,30.05,ESE,113,0.0,0.6,60,0.00,,,0.00,WUHU216HW,2013-09-18 23:36:00,
2013-09-18 19:41:00,75.9,61.5,30.05,SE,135,0.0,0.8,61,0.00,,,0.00,WUHU216HW,2013-09-18 23:41:00,
2013-09-18 19:46:00,75.7,61.3,30.05,SE,135,0.0,0.8,61,0.00,,,0.00,WUHU216HW,2013-09-18 23:46:00,
2013-09-18 19:51:00,75.7,61.3,30.05,SE,135,0.0,0.0,61,0.00,,,0.00,WUHU216HW,2013-09-18 23:51:00,
2013-09-18 19:56:00,75.3,61.4,30.04,South,180,0.6,0.8,62,0.00,,,0.00,WUHU216HW,2013-09-18 23:56:00,
2013-09-18 20:01:00,75.3,61.4,30.04,SE,135,0.0,0.8,62,0.00,,,0.00,WUHU216HW,2013-09-19 00:01:00,
2013-09-18 20:06:00,75.2,61.3,30.04,SE,135,0.0,0.8,62,0.00,,,0.00,WUHU216HW,2013-09-19 00:06:00,
2013-09-18 20:11:00,75.0,61.1,30.04,SE,135,0.0,0.8,62,0.00,,,0.00,WUHU216HW,2013-09-19 00:11:00,
2013-09-18 20:16:00,75.0,61.5,30.04,West,270,0.0,0.8,63,0.00,,,0.00,WUHU216HW,2013-09-19 00:16:00,
2013-09-18 20:21:00,75.0,61.5,30.04,SSE,158,0.0,1.1,63,0.00,,,0.00,WUHU216HW,2013-09-19 00:21:00,
2013-09-18 20:26:00,74.8,61.3,30.04,SE,135,0.0,1.1,63,0.00,,,0.00,WUHU216HW,2013-09-19 00:26:00,
2013-09-18 20:31:00,74.8,61.3,30.04,SE,135,0.0,0.0,63,0.00,,,0.00,WUHU216HW,2013-09-19 00:31:00,
2013-09-18 20:36:00,74.6,61.1,30.05,SSE,158,0.0,0.0,63,0.00,,,0.00,WUHU216HW,2013-09-19 00:36:00,
2013-09-18 20:41:00,74.6,61.6,30.05,SE,135,0.0,0.0,64,0.00,,,0.00,WUHU216HW,2013-09-19 00:41:00,
2013-09-18 20:46:00,74.4,61.4,30.05,SSE,158,1.1,1.1,64,0.00,,,0.00,WUHU216HW,2013-09-19 00:46:00,
2013-09-18 20:51:00,74.4,61.4,30.06,SE,135,0.0,2.6,64,0.00,,,0.00,WUHU216HW,2013-09-19 00:51:00,
2013-09-18 20:56:00,74.3,61.3,30.05,SE,135,0.0,2.6,64,0.00,,,0.00,WUHU216HW,2013-09-19 00:56:00,
2013-09-18 21:01:00,74.1,61.5,30.06,SE,135,0.0,0.0,65,0.00,,,0.00,WUHU216HW,2013-09-19 01:01:00,
2013-09-18 21:06:00,74.1,61.5,30.06,SE,135,0.0,0.0,65,0.00,,,0.00,WUHU216HW,2013-09-19 01:06:00,
2013-09-18 21:11:00,74.1,61.5,30.06,South,180,0.0,0.0,65,0.00,,,0.00,WUHU216HW,2013-09-19 01:11:00,
2013-09-18 21:16:00,73.9,61.3,30.07,South,180,0.0,0.0,65,0.00,,,0.00,WUHU216HW,2013-09-19 01:16:00,
2013-09-18 21:21:00,73.9,61.3,30.07,South,180,0.0,0.0,65,0.00,,,0.00,WUHU216HW,2013-09-19 01:21:00,
2013-09-18 21:26:00,73.9,61.3,30.07,South,180,0.0,0.0,65,0.00,,,0.00,WUHU216HW,2013-09-19 01:26:00,
2013-09-18 21:31:00,73.7,61.6,30.07,South,180,0.0,0.0,66,0.00,,,0.00,WUHU216HW,2013-09-19 01:31:00,
2013-09-18 21:36:00,73.5,61.5,30.07,South,180,0.0,0.0,66,0.00,,,0.00,WUHU216HW,2013-09-19 01:36:00,
2013-09-18 21:41:00,73.5,61.5,30.08,South,180,0.0,0.0,66,0.00,,,0.00,WUHU216HW,2013-09-19 01:41:00,
2013-09-18 21:46:00,73.4,61.3,30.08,SSE,158,0.0,0.0,66,0.00,,,0.00,WUHU216HW,2013-09-19 01:46:00,
2013-09-18 21:51:00,73.2,61.6,30.08,South,180,0.0,0.0,67,0.00,,,0.00,WUHU216HW,2013-09-19 01:51:00,
2013-09-18 21:56:00,73.2,61.6,30.08,South,180,0.0,0.0,67,0.00,,,0.00,WUHU216HW,2013-09-19 01:56:00,
2013-09-18 22:01:00,73.2,61.6,30.08,South,180,0.0,0.0,67,0.00,,,0.00,WUHU216HW,2013-09-19 02:01:00,
2013-09-18 22:06:00,73.0,61.4,30.08,South,180,0.0,0.0,67,0.00,,,0.00,WUHU216HW,2013-09-19 02:06:00,
2013-09-18 22:11:00,73.0,61.4,30.08,South,180,0.0,0.0,67,0.00,,,0.00,WUHU216HW,2013-09-19 02:11:00,
2013-09-18 22:16:00,73.0,61.8,30.08,SSW,203,0.0,0.0,68,0.00,,,0.00,WUHU216HW,2013-09-19 02:16:00,
2013-09-18 22:21:00,73.0,61.8,30.08,SSW,203,0.0,0.0,68,0.00,,,0.00,WUHU216HW,2013-09-19 02:21:00,
2013-09-18 22:26:00,72.6,61.9,30.08,SSW,203,0.0,0.0,69,0.00,,,0.00,WUHU216HW,2013-09-19 02:26:00,
2013-09-18 22:31:00,72.5,61.7,30.08,SSW,203,0.0,0.0,69,0.00,,,0.00,WUHU216HW,2013-09-19 02:31:00,
2013-09-18 22:36:00,72.3,62.0,30.08,SSW,203,0.0,0.0,70,0.00,,,0.00,WUHU216HW,2013-09-19 02:36:00,
2013-09-18 22:41:00,71.7,61.8,30.08,South,180,0.0,0.0,71,0.00,,,0.00,WUHU216HW,2013-09-19 02:41:00,
2013-09-18 22:46:00,71.4,61.9,30.08,South,180,0.0,0.0,72,0.00,,,0.00,WUHU216HW,2013-09-19 02:46:00,
2013-09-18 22:51:00,71.2,61.7,30.08,South,180,0.0,0.0,72,0.00,,,0.00,WUHU216HW,2013-09-19 02:51:00,
2013-09-18 22:56:00,70.8,61.7,30.08,South,180,0.0,0.0,73,0.00,,,0.00,WUHU216HW,2013-09-19 02:56:00,
2013-09-18 23:01:00,70.7,61.9,30.08,South,180,0.0,0.0,74,0.00,,,0.00,WUHU216HW,2013-09-19 03:01:00,
2013-09-18 23:06:00,70.5,61.7,30.08,South,180,0.0,0.0,74,0.00,,,0.00,WUHU216HW,2013-09-19 03:06:00,
2013-09-18 23:11:00,70.3,61.9,30.08,South,180,0.0,0.0,75,0.00,,,0.00,WUHU216HW,2013-09-19 03:11:00,
2013-09-18 23:16:00,70.3,61.9,30.09,South,180,0.0,0.0,75,0.00,,,0.00,WUHU216HW,2013-09-19 03:16:00,
2013-09-18 23:21:00,69.9,61.6,30.08,South,180,0.0,0.0,75,0.00,,,0.00,WUHU216HW,2013-09-19 03:21:00,
2013-09-18 23:26:00,69.8,61.8,30.08,South,180,0.0,0.0,76,0.00,,,0.00,WUHU216HW,2013-09-19 03:26:00,
2013-09-18 23:31:00,69.6,61.6,30.08,South,180,0.0,0.0,76,0.00,,,0.00,WUHU216HW,2013-09-19 03:31:00,
2013-09-18 23:36:00,69.6,61.6,30.08,South,180,0.0,0.0,76,0.00,,,0.00,WUHU216HW,2013-09-19 03:36:00,
2013-09-18 23:41:00,69.6,61.6,30.08,SSE,158,0.0,0.0,76,0.00,,,0.00,WUHU216HW,2013-09-19 03:41:00,
2013-09-18 23:46:00,69.4,61.4,30.08,SSE,158,0.0,0.0,76,0.00,,,0.00,WUHU216HW,2013-09-19 03:46:00,
2013-09-18 23:51:00,69.4,61.8,30.07,SSE,158,0.0,0.0,77,0.00,,,0.00,WUHU216HW,2013-09-19 03:51:00,
2013-09-18 23:56:00,69.0,61.5,30.07,SSE,158,0.0,0.0,77,0.00,,,0.00,WUHU216HW,2013-09-19 03:56:00,